Regional Weather Roundup
Issued by NWS Cleveland, OH

Home | Current Version | Previous Version | Graphics & Text | Print | Product List | Glossary On
Versions: 1 2 3 4 5 6 7 8 9 10 11 12 13 14 15 16 17 18 19 20 21 22 23 24 25 26 27 28 29 30 31 32 33 34 35 36 37 38 39 40 41 42 43 44 45 46 47 48 49 50
000
ASUS41 KCLE 270402
RWRCLE
OHIO REGIONAL WEATHER ROUNDUP
NATIONAL WEATHER SERVICE CLEVELAND, OH
1100 PM EST MON JAN 26 2015

NOTE: "FAIR" INDICATES FEW OR NO CLOUDS BELOW 12,000 FEET WITH NO
SIGNIFICANT WEATHER AND/OR OBSTRUCTIONS TO VISIBILITY.

OHZ001>008-015>018-024>027-034-035-043-044-270500-
   NORTHWEST OHIO

CITY           SKY/WX    TMP DP  RH WIND       PRES   REMARKS
DEFIANCE       PTCLDY    11   7  84 CALM      29.97F
FINDLAY        MOCLDY     6   3  87 CALM      29.95F FOG
TOLEDO EXPRESS CLEAR     10   7  87 CALM      29.97F
TOLEDO EXEC    CLEAR     13   6  74 CALM      29.98F
LIMA           PTCLDY     6   1  80 CALM      29.94F HAZE
$$

OHZ009>014-019>023-028>033-038-089-270500-
   NORTHEAST OHIO

CITY           SKY/WX    TMP DP  RH WIND       PRES   REMARKS
CLE-HOPKINS    LGT SNOW  20  16  84 NW8       29.95S WCI  10
CLE-LAKEFRONT  FLURRIES  22  16  78 N12       29.93S WCI  10
CUY CO. ARPT   FLURRIES  23  18  80 N10       29.92S WCI  12
LORAIN-ELYRIA  CLOUDY    18  13  80 NW7       29.94S WCI   9
ASHTABULA      FLURRIES  20  15  81 N5        29.89S WCI  13
AKRON-CANTON   LGT SNOW  20  15  81 N7        29.88R WCI  11
WOOSTER        CLOUDY    17  12  80 NW9       29.90S WCI   6
MANSFIELD      CLOUDY    15  11  83 W3        29.90S FOG
YOUNGSTOWN     FLURRIES  20  16  84 NW8       29.85S WCI  10
$$

OHZ042-051>053-060>062-070>072-077>081-270500-
  SOUTHWEST OHIO

CITY           SKY/WX    TMP DP  RH WIND       PRES   REMARKS
CINC-COVINGTON CLOUDY    25  17  72 E5        29.93S WCI  19
CINC-LUNKEN    CLOUDY    22  14  71 NE3       29.98S
HAMILTON       CLOUDY    21  14  74 E3        29.98R
DAYTON         CLOUDY    15  11  83 E3        29.95R
WRIGHT-PAT AFB MOCLDY    12   8  86 NE3       29.95S
DAYTON GENERAL CLOUDY    17  13  84 NE5       29.93S WCI  10
WILMINGTON     CLOUDY    13   8  81 CALM      29.93S
$$

OHZ036-037-039>041-045>050-054>059-063>069-073>076-082>088-270500-
  CENTRAL AND SOUTHEAST OHIO

CITY           SKY/WX    TMP DP  RH WIND       PRES   REMARKS
COLUMBUS       PTCLDY    11   7  84 NW6       29.95S WCI   1
OSU AIRPORT    PTCLDY     9   6  88 NW7       29.95S WCI  -2
BOLTON FIELD   NOT AVBL
RICKENBACK AFB NOT AVBL
NEWARK         CLOUDY    15  10  80 CALM      29.93R
MARION         FOG        1  -3  83 CALM      29.94F VSB 1
LANCASTER      CLOUDY    10   6  84 CALM      29.95R
ZANESVILLE     CLOUDY    18  13  80 W6        29.91S WCI  10
NEW PHILLY     LGT SNOW  21  15  78 N7        29.91S WCI  12
$$



USA.gov is the U.S. government's official web portal to all federal, state and local government web resources and services.